Regional Weather Roundup
Issued by NWS

Home | Current Version | Previous Version | Text Only | Print | Product List | Glossary On
Versions: 1 2 3 4 5 6 7 8 9 10 11 12 13 14 15 16 17 18 19 20 21 22 23 24 25 26 27 28 29 30 31 32 33 34 35 36 37 38 39 40 41 42 43 44 45 46 47 48 49 50
000
ASHW40 PHFO 022143
RWRHI

WEATHER ROUNDUP FOR HAWAII
NATIONAL WEATHER SERVICE HONOLULU HI
1100 AM HST WED SEP 02 2015

THIS IS AN AUTOMATED REPORT THAT HAS NOT BEEN QUALITY CONTROLLED.

NOTE..."FAIR" INDICATES FEW OR NO CLOUDS BELOW 12,000 FEET WITH NO
SIGNIFICANT WEATHER AND/OR OBSTRUCTIONS TO VISIBILITY.

* - THESE SITES REPORT LIMITED FIELDS

HIZ001>004-022200-
KAUAI-NIIHAU-

CITY           SKY/WX    TMP DP  RH WIND       PRES   REMARKS
LIHUE APT      SUNNY     86  79  79 S12       29.86S HX  99
PORT ALLEN*    NOT AVBL
POIPU*           N/A     88 N/A N/A S2          N/A
PRINCEVILLE*     N/A     84 N/A N/A MISG        N/A
KOKOLE POINT*  NOT AVBL
MOLOAA DAIRY*    N/A     84  75  74 SE5G10      N/A  HX  92
WAIMEA HTS*      N/A     91  77  62 W8G16       N/A  HX 105
PUU OPAE*        N/A     82  72  69 W8G15       N/A
PUU LUA*       NOT AVBL
MAKAHA RIDGE*    N/A     79  72  78 W2          N/A
$$

HIZ005>011-022200-
OAHU-

CITY           SKY/WX    TMP DP  RH WIND       PRES   REMARKS
HONOLULU       MOSUNNY   84  77  79 SW7       29.86S HX  94
KALAELOA       SUNNY     84  76  76 SW8       29.88S HX  93
KANEOHE MCB    SUNNY     88  73  61 S9        29.82F HX  95
WHEELER FIELD  FAIR      83  74  72 S9        29.86F HX  90
BELLOWS*         N/A    N/A N/A N/A S3G10       N/A
KAHUKU*          N/A    N/A N/A N/A SW5G12      N/A
WHEELER*       NOT AVBL
WAIANAE HARBOR NOT AVBL
DILLINGHAM*      N/A     77  63  61 MISG        N/A
KAHUKU TRN*      N/A     75  64  69 W3          N/A
KAWAILOA*        N/A     82  75  78 SW5G12      N/A
KII*             N/A     88  77  70 W5G15       N/A  HX 100
MAKUA RANGE*     N/A     90  75  62 SW7G14      N/A  HX 100
OAHU FOREST NW   N/A     77  72  83 CALM        N/A
SCHOFIELD BRK*   N/A     70  59  68 MISG        N/A
SCHOFIELD S*   NOT AVBL
WAIANAE VLY*     N/A     88  77  70 MISG        N/A  HX 100
KUAOKALA*        N/A     84  75  74 S7G16       N/A  HX  92
HONOULIUULI*   NOT AVBL
MOKUOLOE IS*     N/A    N/A N/A N/A MISG        N/A
PALEHUA*         N/A     79  70  73 S5G10       N/A
WAIAWA PHB*    NOT AVBL
$$

HIZ012>013-022200-
MOLOKAI-

CITY           SKY/WX    TMP DP  RH WIND       PRES   REMARKS
MOLOKAI AIRPT  MOSUNNY   85  74  69 S13       29.89S HX  92
KALAUPAPA      NOT AVBL
MAKAPULAPAI*     N/A     88  77  70 E7          N/A  HX 100
MOLOKAI 1*       N/A     81  73  78 SE3G10      N/A
PUU ALII*        N/A     74  68  82 S2G8        N/A
$$

HIZ016-022200-
KAHOOLAWE-

CITY           SKY/WX    TMP DP  RH WIND       PRES   REMARKS
KAHOOLAWE*       N/A     81 N/A N/A S12G17      N/A
HAKIOAWA*        N/A     82  75  79 MISG      30.32F
HONOKANAIA*      N/A     88  77  70 SE8G14    29.83R HX 100
KANELOA*         N/A     82  75  78 S8G14     29.96S
KEALIALALO*      N/A     81  73  78 S16       29.89S
LUA MAKIKA*    NOT AVBL
$$

HIZ014>015-022200-
LANAI-

CITY           SKY/WX    TMP DP  RH WIND       PRES   REMARKS
LANAI CITY     CLOUDY    81  73  78 S9        29.95S
LANAI 1*         N/A     75  70  83 S9G15       N/A
$$

HIZ017>028-022200-
MAUI-

CITY           SKY/WX    TMP DP  RH WIND       PRES   REMARKS
KAHULUI        MOSUNNY   88  75  65 S22       29.87S HX  97
KAPALUA-W MAUI MOSUNNY   88  73  62 S17       29.88S HX  96
HANA AIRPORT   PTSUNNY   86  77  74 NW6       29.89S HX  97
HANA*            N/A     86 N/A N/A NW7         N/A
HALEAKALA SUMM   N/A     57  48  72 SE10        N/A
MAALAEA BAY*   NOT AVBL
HALEAKALA*     NOT AVBL
KAUPO GAP*       N/A     70  68  94 E6G17       N/A
KULA 1*          N/A     70  61  74 NW5G12      N/A
$$

HIZ023>026-022200-
BIG ISLAND OF HAWAII COAST AND LOWER SLOPES-

CITY           SKY/WX    TMP DP  RH WIND       PRES   REMARKS
KAILUA KONA    SUNNY     86  75  69 S17       29.87F HX  95
HILO           MOSUNNY   88  76  67 N10       29.88S HX  99
HONOKAA*       NOT AVBL
KAWAIHAE MWT*    N/A     88 N/A N/A W10         N/A
KAWAIHAE*        N/A     84 N/A N/A W10         N/A
SOUTH POINT*     N/A     82 N/A N/A E2G9        N/A
UPOLU AIRPORT*   N/A    N/A N/A N/A SW8G14      N/A
KAMUELA*       NOT AVBL
HAKALAU*         N/A     68  60  75 E6G12       N/A
KALOKO-HONOKO*   N/A     88  73  62 S10       29.87F HX  96
PALI 2*          N/A     79  70  73 SW3G12      N/A
KEALAKOMO*     NOT AVBL
KAUPULEHU*       N/A     90  72  55 NE7         N/A  HX  96
KAPAPALA*        N/A     85  74  69 S3          N/A  HX  92
LOWER KAHUKU*    N/A     75 N/A N/A S2          N/A
PUHE CS*         N/A     86  72  62 W7G14       N/A  HX  92
PUHO CS*         N/A     87  73  62 SW3         N/A  HX  94
PTA KEAMUKU*     N/A     75  66  73 CALM        N/A
WAIKOLOA*        N/A     86  70  58 NW5G12      N/A  HX  90
$$

HIZ027>028-022200-
BIG ISLAND OF HAWAII INTERIOR AND SUMMMITS-

CITY           SKY/WX    TMP DP  RH WIND       PRES   REMARKS
BRADSHAW FIELD SUNNY     73  53  49 W7        30.28S
MK VISITOR CEN   N/A     57  48  72 S8          N/A
MAUNA KEA*       N/A     43  36  75 W10         N/A
MAUNA LOA*       N/A     48  43  81 MISG        N/A
MAUNA LOA 1*   NOT AVBL
PTA KIPUKA*      N/A     75  54  46 SW6G15      N/A
PTA RANGE 17*    N/A     73  55  53 W9G17       N/A
PTA WEST*        N/A     73  64  73 N10G16      N/A
NENE CABIN*      N/A     66  54  63 S6G12       N/A
AHUMOA*          N/A     64  60  88 NW6G14      N/A
PTA PORTABLE*  NOT AVBL
PUU MALI*        N/A     61  59  94 NE6G13      N/A
$$

HIC003-022200-
NORTHWEST ISLANDS-

CITY           SKY/WX    TMP DP  RH WIND       PRES   REMARKS
MIDWAY ISLAND  MOSUNNY   84  79  84 SE14      29.95S HAZE    HX  96
MIDWAY NOS*    NOT AVBL
FRENCH FRIGATE NOT AVBL
$$

PHZ110>124-180-022200-
BUOY REPORTS

STATION/POSITION TIME  TEMP    WIND        PRES    WAVE   SWELL
                       AIR SEA DIR/SP/G            HT/PER HT/DIR
                 (UTC) (F)     (DEG/KT/KT) (MB)    (FT/S) (FT/D)
BUOY 51001       2059   81 83  350/ 16/ 19 1011.0
BUOY 51101       2100   81 82  350/ 16/ 17 1010.5F  12/13  10/ 70
BUOY 51100       NOT AVBL
BUOY 51002       2100   83 84  220/  4/  6 1011.8S   6/16   7/150
BUOY 51003       2100   82 85  110/  8/ 10 1011.4F   9/12   8/ 20
BUOY 51004       2015   82 85   80/  6/  8 1012.7    7/16   7/110
BARBERS PT BUOY  NOT AVBL
WAIMEA BAY BUOY  2100      83                N/A     9/11   7/ 20
KAILUA BAY BUOY  2100      84                N/A    10/11   8/ 10
LANAI BUOY       NOT AVBL
BARBERS PT 2     2100      83                N/A     3/12   2/210
PAUWELA MAUI     2100      82                N/A    10/14   8/ 90
HILO             NOT AVBL
KANEOHE BAY BUOY 2100      84                N/A     8/11   7/ 10
HANALEI KAUAI    2100      83                N/A     9/12   7/ 40
KAHULUI HARBOR   2100   85 83                N/A
HONOLULU HARBOR  2100   82 83                N/A
KILO NALU        NOT AVBL
HILO HARBOR      2100   83 81                N/A
MOKUOLOE         2100      86              1010.8S
NAWILIWILI       2100   82 84                N/A
WHOTS BUOY       NOT AVBL
BUOY 51028       NOT AVBL
$$

......................KEY........................................
  SKY/WX - SKY CONDITIONS/PRESENT WEATHER
  TMP    - TEMPERATURE IN FAHRENHEIT
  DWPT   - DEWPOINT IN FAHRENHEIT
  RH     - RELATIVE HUMIDITY IN PERCENT
  WIND   - DIRECTION AND SPEED /MPH FOR ISLANDS...KTS FOR BUOYS/
  PRES   - MEAN SEA LEVEL PRESSURE IN INCHES OF HG
  VSB    - VISIBILITY IN MILES
  HX     - HEAT INDEX
  WCI    - WIND CHILL INDEX
  VRB    - VARIABLE WIND DIRECTION
  N/A    - NOT AVAILABLE


USA.gov is the U.S. government's official web portal to all federal, state and local government web resources and services.